Find Starlink 30039

NORAD ID: 57468 Int'l Des: 2023-107 Owner: SPXS Country: US Constellation: starlink operational
LEOCIRCULAR

实时位置

正在加载3D地球...

关于 Starlink 30039

正在加载描述...

即将过境

Passes for default location (London). Set your location on the main map for personalized predictions.

高度历史

Loading altitude history...

两行轨道根数

1 57468U 23107M 26130.01687646 -.00000948 00000-0 -24933-4 0 9991
2 57468 43.0050 349.9852 0001452 269.5476 90.5210 15.27568059154527
Epoch: May 10, 2026 • Age: 14 hours

当前状态

高度 495.4 km
速度 7.62 km/s
星下点 -43.16°S, 175.4°E
发射日期 Jul 28, 2023
运行时间 2.7 years
类型 internet

技术详情

分类 Payload
质量 730.00 kg
干质量 700.00 kg
总质量 730.00 kg
长度 0.30 m
直径 4.10 m
跨度 29.00 m
形状 Box + pan
制造商 SPXS
平台类型 Starlink V2M
阶段状态 In Orbit
所有者/国家 SPXS/US

Most Searched